Theta_e
310 310 311 311 311 312 312 313 314 314 314 315 316 317 317 317 317 316 315 314 314 314 313 311 309 311 313 315 317 318 319 320 320 321 322 322 322 322 324 324 325 325 325 325 324 321 321 322 324 326 327 329 328 327 326 326 333 336 338 337 338 342 341 341 336 331 333 329 325 324 326 329 324 324 322 321 323 323 328 334 336 338 336 334 334 331 331 332
309 309 310 310 310 310 311 313 313 313 313 314 315 316 317 317 317 316 315 314 314 314 314 312 309 309 311 313 316 317 318 319 321 321 321 320 320 321 323 324 324 325 325 325 325 321 326 331 328 329 329 331 331 326 328 329 329 336 340 338 339 345 342 336 333 329 327 324 326 325 324 326 324 324 322 323 322 324 330 330 337 349 339 331 331 329 331 331
308 308 309 309 309 310 311 312 313 313 313 313 314 315 316 317 317 316 315 314 314 314 314 314 310 307 309 312 315 317 318 320 322 321 320 319 320 320 321 323 324 324 325 325 326 322 326 330 327 331 331 332 336 330 331 332 329 337 339 337 341 343 336 333 332 328 327 325 326 324 323 324 324 324 322 324 323 323 330 332 337 349 341 335 332 329 330 330
308 308 308 308 309 309 310 311 312 313 312 313 313 313 315 316 317 316 315 314 314 313 314 314 311 307 308 311 314 317 319 320 321 320 318 318 319 320 321 323 324 325 325 325 326 324 323 324 326 333 331 333 339 331 331 334 332 334 334 336 340 336 332 335 332 328 328 327 327 328 325 324 323 324 324 324 324 324 326 328 334 344 341 336 333 329 329 329
308 308 308 308 309 309 310 310 311 312 312 312 313 313 314 315 317 317 316 315 314 314 314 314 312 307 307 310 314 317 318 319 322 321 320 320 319 320 320 321 324 325 326 326 326 324 322 323 329 334 332 335 338 331 334 335 331 334 332 335 337 332 332 335 333 331 331 330 333 331 325 324 323 324 327 325 326 329 325 323 326 336 338 335 333 330 329 329
307 308 308 308 309 309 309 309 310 311 312 312 312 313 313 314 316 316 316 315 315 314 314 314 312 307 306 310 313 317 319 320 323 324 324 324 322 322 321 320 322 325 326 327 326 324 325 328 332 336 334 335 336 334 339 334 328 333 333 334 334 330 331 334 334 333 333 333 332 329 324 326 327 326 327 326 328 330 326 326 323 329 334 333 331 330 331 331
307 307 307 308 308 309 309 309 309 310 311 312 312 313 313 314 315 316 316 315 315 314 314 314 312 306 306 311 316 318 320 319 320 322 324 323 323 322 322 322 321 323 326 327 325 324 328 332 335 338 334 335 337 335 337 333 328 331 333 334 335 332 330 332 334 334 335 333 328 327 326 327 329 328 325 324 328 327 324 327 324 326 331 332 331 331 331 331
306 306 307 307 308 308 308 308 309 309 310 311 312 312 313 314 314 315 316 315 315 315 314 314 312 307 306 313 318 317 317 318 316 320 324 323 323 321 321 323 322 323 326 326 326 324 327 332 333 336 335 335 336 334 334 334 332 331 332 334 333 333 333 333 335 336 335 332 329 329 328 331 331 327 326 327 330 328 324 328 328 329 332 333 333 333 331 330
305 306 306 306 307 307 307 308 309 309 309 310 311 312 313 313 313 315 316 315 315 315 314 313 311 307 306 314 317 315 315 315 313 316 320 321 321 319 319 324 325 325 326 326 326 324 326 330 333 334 335 335 333 333 333 334 335 332 331 333 332 331 334 334 334 336 336 332 331 331 332 335 334 329 331 333 333 329 327 333 334 333 336 334 334 333 331 331
305 305 305 306 306 307 307 307 308 309 309 310 311 311 312 312 313 314 315 315 315 315 314 313 310 307 310 315 315 313 313 312 312 313 314 317 317 317 319 324 327 326 326 326 325 324 325 328 330 328 328 330 328 330 332 333 336 334 330 331 331 332 333 333 333 334 335 332 332 332 334 336 333 329 333 337 334 327 327 334 333 335 338 334 333 332 330 330
305 305 305 305 305 306 307 307 307 308 309 309 310 311 311 312 312 314 315 315 315 314 314 313 310 309 313 316 314 312 312 313 316 315 315 316 317 319 319 322 327 328 326 325 325 324 324 325 325 322 323 325 323 325 328 331 332 331 330 330 331 333 332 331 332 333 331 330 334 333 334 335 330 330 334 337 334 328 328 331 331 335 337 332 333 333 329 330
305 305 305 305 305 306 306 307 307 308 308 309 310 310 311 311 312 313 315 316 315 314 314 313 310 311 314 315 312 311 310 313 318 319 319 321 320 321 320 319 324 327 327 325 325 324 324 325 323 324 327 324 322 322 324 327 327 327 328 329 331 332 331 331 330 333 330 331 335 332 332 334 331 332 334 335 333 330 331 330 328 331 332 331 332 332 331 330
304 305 305 305 305 306 306 306 307 308 308 308 309 310 311 311 312 312 314 315 315 314 314 313 311 312 313 312 311 309 307 311 316 318 320 322 323 323 323 322 323 326 327 325 325 325 324 325 325 328 328 325 327 324 321 324 325 326 327 327 330 331 333 332 329 333 332 331 335 331 333 336 334 333 332 334 333 330 331 331 329 326 326 327 328 330 332 329
303 304 305 304 304 305 306 306 306 307 307 308 309 310 310 310 311 312 313 315 315 314 314 313 312 313 313 311 309 308 306 307 310 314 317 318 320 324 325 325 325 326 327 326 325 324 323 324 325 328 328 327 328 325 327 330 326 326 327 328 331 331 336 336 330 333 332 329 333 331 332 335 335 334 331 331 331 330 331 331 330 327 325 324 325 326 328 328
304 304 305 305 304 304 305 306 306 306 307 308 308 310 310 310 311 311 312 314 315 314 313 312 312 312 311 310 308 308 308 307 306 309 315 315 316 323 326 326 327 326 327 326 325 324 323 324 326 330 331 328 326 328 333 333 329 329 327 329 332 332 337 338 330 331 332 329 329 331 335 336 335 335 334 332 330 329 330 330 330 328 327 327 326 325 324 324
304 305 305 305 305 305 305 306 306 306 307 307 308 309 310 310 310 311 312 313 315 314 313 312 312 312 310 309 308 307 307 307 306 306 312 314 314 320 325 325 326 326 326 325 324 325 324 325 328 330 332 330 328 331 333 329 329 331 326 326 331 332 335 336 329 329 332 332 328 329 338 340 336 336 335 333 331 329 329 328 328 328 327 328 328 327 326 325
304 305 305 305 305 305 305 305 306 306 306 307 308 308 309 309 309 310 311 313 314 314 313 311 311 311 310 308 308 309 307 307 308 306 307 311 313 318 322 323 324 323 323 324 323 324 325 326 327 327 330 332 331 331 331 328 326 328 327 326 330 332 332 333 331 328 330 333 331 330 333 336 337 339 336 332 329 329 329 328 328 327 326 327 327 327 327 327
305 305 305 305 304 305 305 305 305 306 306 307 307 308 309 309 309 310 312 312 313 313 312 310 311 311 310 308 308 310 308 306 310 310 308 310 314 318 320 322 322 321 323 325 324 325 326 326 326 327 330 331 330 328 329 327 322 325 328 328 329 329 329 332 332 328 328 330 332 333 332 330 333 335 336 335 331 330 331 329 328 327 327 327 327 327 327 327
305 305 305 305 305 305 305 305 306 306 306 307 307 308 309 309 309 310 312 312 311 313 312 311 311 310 312 311 308 308 309 307 310 314 314 315 317 319 319 319 321 321 323 326 326 326 327 327 327 329 330 330 329 327 326 326 322 322 326 329 331 330 329 331 332 329 326 327 330 331 331 330 330 330 332 335 333 331 331 330 329 328 327 326 326 327 327 327
305 305 305 306 305 306 305 305 305 305 306 307 307 307 308 308 309 310 312 311 311 312 312 311 310 310 313 315 308 306 310 310 311 316 318 318 318 318 318 317 320 321 323 326 327 326 327 328 329 329 328 327 328 326 326 327 325 323 327 329 330 331 330 328 328 327 324 325 328 327 327 327 327 328 329 330 330 330 331 331 332 331 328 327 326 327 328 329
306 306 305 306 305 305 305 305 305 305 306 306 306 306 307 308 309 310 312 311 310 310 310 310 309 309 311 313 309 306 311 313 313 316 319 319 319 318 319 319 321 323 322 324 326 325 326 328 328 326 325 324 325 326 326 327 325 324 327 328 329 329 327 325 325 324 323 324 327 329 329 327 326 328 327 328 329 328 329 330 332 332 331 329 328 329 329 328
306 306 306 306 306 306 306 305 304 305 306 306 305 305 306 308 308 310 310 311 311 309 309 309 308 308 307 309 308 306 313 316 314 316 319 319 318 318 320 320 322 325 324 324 325 326 328 328 327 324 323 323 323 325 326 327 325 324 325 327 330 328 325 325 325 323 322 322 325 329 329 327 327 327 326 327 327 326 327 328 328 329 330 329 329 330 329 329
305 306 306 306 306 306 306 306 304 305 306 306 306 306 306 307 308 308 309 310 311 309 308 308 308 308 307 308 308 307 314 316 314 316 318 320 319 317 320 321 321 324 325 324 326 328 330 328 325 323 323 322 321 323 325 326 326 326 325 325 327 326 326 327 325 323 323 322 323 328 327 325 327 327 327 326 325 326 326 327 327 327 328 328 328 329 329 329
305 305 306 306 306 306 307 307 306 305 306 306 306 306 306 307 307 308 309 308 309 309 308 308 308 308 307 308 308 309 315 315 314 316 317 319 319 318 320 320 319 322 324 325 325 327 328 326 324 324 323 322 321 322 324 325 326 326 325 324 325 324 324 328 327 322 322 322 323 328 328 327 329 329 327 327 326 325 325 327 327 326 327 327 327 328 328 328
306 305 306 306 306 306 307 307 306 306 306 306 306 306 306 307 307 307 309 308 308 308 308 308 308 309 308 307 309 311 314 315 315 315 316 319 318 317 319 318 318 320 322 324 325 326 325 324 324 324 323 322 321 321 323 325 326 326 325 323 323 323 322 326 326 320 321 324 325 328 329 330 332 331 328 327 327 325 324 325 325 325 325 325 325 326 326 326
306 306 306 305 305 306 307 306 305 306 306 306 306 306 306 307 307 307 307 309 309 309 309 309 308 309 308 307 309 312 315 316 315 315 316 318 316 317 318 318 318 319 320 321 324 326 325 324 324 324 324 323 322 321 321 323 325 326 325 322 321 322 322 323 323 322 326 328 327 327 328 331 331 330 329 328 328 327 324 324 324 324 323 322 322 321 322 322
306 306 306 305 304 306 306 305 305 306 306 306 306 305 306 307 307 305 306 309 310 309 309 308 308 309 308 308 309 313 315 316 316 317 317 317 317 316 318 319 319 318 318 320 323 326 324 324 325 324 324 323 322 322 320 321 323 323 323 323 322 322 323 324 323 324 327 327 327 325 325 329 329 328 329 328 327 327 326 325 325 324 323 322 321 319 319 319
305 305 305 305 305 306 306 305 305 305 306 305 305 305 307 307 305 304 306 310 311 309 308 308 308 308 308 309 310 313 315 315 318 318 317 317 317 317 317 318 318 318 318 320 323 326 325 324 325 324 324 324 322 321 321 320 320 321 323 324 322 321 323 326 325 326 326 325 327 327 325 328 328 327 328 327 327 327 325 325 324 324 323 321 320 319 319 318
304 304 304 305 305 306 306 305 305 305 306 305 305 306 306 305 304 304 307 309 309 309 309 309 309 310 310 310 310 312 311 312 316 317 315 317 317 316 318 317 317 318 319 320 322 325 325 324 323 324 324 324 322 320 321 320 318 323 326 322 320 321 322 325 326 325 325 325 326 326 326 326 326 327 327 325 325 324 323 324 322 322 322 321 320 320 319 318
304 303 303 304 305 306 305 305 305 306 306 305 306 306 305 304 305 306 308 308 308 308 309 310 310 310 311 310 310 311 311 312 316 316 314 316 316 316 317 317 319 320 319 320 320 321 323 322 321 323 323 322 321 321 321 320 321 326 327 323 324 327 326 327 329 325 324 327 326 323 326 326 324 326 325 323 324 323 322 322 321 321 322 321 320 320 319 317
303 304 304 305 305 306 305 304 304 305 306 306 306 305 305 305 306 308 308 307 307 310 310 310 310 311 311 309 310 311 311 313 316 317 316 316 316 316 317 318 319 320 319 320 320 320 321 321 321 323 323 322 321 322 320 320 324 325 325 327 329 329 328 329 329 326 325 326 326 324 325 326 324 324 322 322 324 323 321 321 321 321 322 320 320 319 318 318
303 304 305 305 305 306 305 305 305 305 305 306 305 304 305 306 306 308 307 305 308 311 310 310 311 311 311 309 309 311 311 313 316 317 318 317 316 317 318 318 317 319 319 319 319 320 321 321 322 323 324 323 322 323 322 322 324 323 323 328 328 328 329 328 327 327 326 325 326 327 326 325 324 323 324 323 322 321 320 320 320 320 320 320 319 319 318 319
302 303 304 303 304 306 305 305 305 305 305 305 305 305 306 306 307 308 305 304 308 310 310 311 311 311 311 309 309 310 310 312 316 318 317 316 317 317 318 317 316 317 319 318 317 319 320 319 321 323 324 323 322 324 324 323 322 321 322 326 327 328 330 330 328 329 327 326 327 328 326 326 324 322 324 322 321 322 320 320 321 320 320 320 319 319 319 320
303 303 303 303 304 305 305 304 304 305 304 304 305 306 305 306 307 308 306 305 306 308 310 311 311 311 311 310 309 309 309 311 316 318 316 315 316 317 318 318 317 317 320 319 316 317 319 319 320 322 324 324 323 323 323 323 322 322 321 323 326 328 330 329 328 329 329 327 327 326 325 328 329 327 325 320 320 321 319 319 321 320 320 320 320 320 321 321
303 303 303 303 304 305 305 304 304 305 304 304 305 306 306 306 307 306 306 307 307 308 310 310 310 312 312 310 309 309 308 310 315 317 316 316 316 317 317 317 317 317 319 319 316 316 317 318 320 320 322 324 323 323 323 324 325 324 324 325 325 326 328 328 328 329 330 329 326 325 327 330 327 325 324 322 320 319 319 320 318 319 319 319 319 321 324 324
302 302 302 303 303 304 304 304 304 304 305 305 305 306 306 306 307 306 306 309 309 309 311 311 311 312 313 311 310 309 308 311 315 317 317 316 316 316 315 316 316 315 317 317 317 317 316 318 322 320 320 323 322 323 324 324 326 327 326 326 325 325 327 329 329 327 329 330 327 326 328 327 323 323 323 321 321 321 322 321 318 318 318 318 319 319 321 323
301 302 302 302 303 303 303 304 303 303 304 305 306 306 306 305 308 309 308 309 309 309 310 311 311 312 312 311 310 310 310 312 315 316 317 316 315 315 315 316 316 315 316 316 317 319 316 317 321 320 320 321 320 323 324 322 325 327 327 325 324 326 327 327 328 327 327 328 328 326 326 326 325 328 327 323 323 323 323 322 320 320 319 320 320 318 320 327
301 302 302 302 303 303 304 304 303 303 304 305 305 306 305 305 307 309 310 309 309 309 309 310 311 311 311 311 310 310 309 310 313 314 315 315 315 315 314 315 316 315 316 315 316 320 317 316 320 320 319 321 321 323 324 321 320 321 322 323 324 326 327 325 326 329 328 328 328 327 326 324 324 326 326 325 324 323 321 321 321 322 323 322 319 318 328 335
301 301 301 303 302 302 303 304 303 303 304 304 305 305 305 306 307 309 310 309 308 309 309 310 311 310 310 310 310 310 308 309 312 313 313 313 314 314 314 314 315 316 315 314 316 320 318 315 319 320 320 322 323 322 323 323 320 317 319 322 322 324 327 327 325 328 331 328 327 329 328 327 326 324 325 327 326 326 324 323 324 323 321 320 321 326 334 333
300 301 301 303 302 302 303 304 304 304 305 305 304 304 304 305 307 308 309 309 308 308 308 309 310 310 310 310 310 310 308 308 312 312 311 312 312 312 313 314 315 316 316 314 316 319 319 315 317 320 319 321 323 322 321 322 322 320 321 322 323 323 326 328 327 328 330 327 327 328 327 330 331 325 323 323 323 324 324 324 324 323 321 325 330 332 331 325
300 301 302 302 302 303 303 304 304 304 305 305 304 305 304 305 307 307 307 308 307 307 308 309 310 309 309 309 309 310 309 308 311 311 310 311 311 311 313 313 314 315 316 316 316 318 319 316 317 321 321 322 324 320 317 319 322 322 322 323 324 323 325 328 329 329 328 326 329 328 327 332 330 322 320 320 320 323 324 322 322 324 326 327 327 324 322 319
300 302 302 302 303 303 303 303 303 303 305 304 304 306 305 305 306 307 306 306 306 307 308 308 309 309 308 309 309 310 309 308 310 311 310 310 310 311 312 313 315 315 315 317 316 316 319 318 317 320 321 321 320 314 311 316 321 321 322 323 323 321 322 327 328 327 327 327 329 328 329 332 326 319 321 323 324 328 328 325 325 326 325 323 321 319 318 317
301 302 302 302 303 303 302 303 303 303 304 304 303 305 305 305 306 305 304 304 305 307 308 308 309 309 308 308 308 309 309 308 309 310 310 308 309 311 313 314 316 316 315 317 316 315 317 318 317 319 320 317 316 313 312 314 318 321 323 323 322 320 320 325 325 322 324 326 327 327 329 328 322 320 321 320 320 323 322 321 324 325 321 320 319 319 317 316
302 302 300 301 303 303 303 304 304 304 303 303 303 305 305 305 306 305 304 303 305 308 308 308 309 309 309 309 309 309 309 309 309 309 310 310 309 312 315 315 316 316 315 316 317 315 316 317 317 320 320 318 318 318 317 315 316 322 324 322 322 321 321 324 324 321 321 324 325 326 329 329 323 321 320 317 318 321 319 318 321 321 321 321 320 319 318 317
301 300 299 300 301 302 302 302 303 304 304 302 304 305 305 306 306 305 305 305 307 308 308 308 310 310 309 309 309 309 309 310 310 309 310 311 310 312 314 315 316 316 315 316 316 314 316 318 317 318 319 319 320 320 319 318 317 320 322 322 322 321 321 323 323 322 323 324 323 324 327 327 321 318 317 316 318 321 318 317 319 320 322 322 321 320 320 319
302 301 300 299 299 300 301 301 302 304 304 303 304 304 305 306 305 305 306 306 307 307 308 309 309 310 309 309 310 309 309 310 311 310 310 310 313 314 314 314 315 315 315 317 316 315 318 320 317 316 318 317 318 319 319 319 319 319 321 322 321 321 321 322 322 324 324 324 324 323 324 324 322 319 319 316 317 320 320 319 319 320 321 321 320 320 319 317
302 302 301 300 300 301 301 301 303 304 304 304 304 304 305 306 305 305 306 307 307 307 308 307 307 309 310 308 309 310 309 309 310 310 310 310 314 315 312 312 314 315 316 317 316 315 317 318 316 316 317 316 319 322 320 319 321 320 321 322 321 321 321 321 322 323 324 324 324 323 324 324 322 322 322 319 317 318 319 319 320 320 320 320 321 322 320 317
299 300 300 299 302 303 302 302 303 304 305 305 304 304 305 305 305 306 307 307 307 307 308 307 307 309 311 310 309 309 309 309 310 311 311 313 316 314 311 311 311 312 315 315 315 316 316 316 315 316 316 315 318 320 317 318 320 319 319 321 321 321 321 321 322 322 323 324 323 324 326 325 321 323 324 321 319 319 319 320 321 319 319 321 323 325 323 320
299 300 299 298 301 303 303 303 303 304 305 305 305 305 305 305 305 306 307 307 307 307 307 308 309 309 310 311 310 309 309 310 310 311 311 313 315 314 314 313 310 310 312 313 312 312 314 315 314 315 315 315 316 317 316 318 320 318 317 318 319 319 318 319 321 320 320 321 320 322 325 323 320 324 324 319 319 321 320 321 320 317 318 322 326 327 324 322
301 303 301 300 302 303 304 304 303 304 304 304 305 305 304 305 305 306 307 307 307 307 306 307 309 309 309 311 311 310 309 309 310 310 310 313 315 314 314 315 312 310 312 312 309 307 311 314 313 313 315 315 314 315 315 317 319 318 316 314 314 316 315 315 318 317 316 317 317 318 321 321 319 322 324 322 321 321 320 320 321 320 320 322 324 325 324 323
300 300 301 303 303 302 303 304 303 304 304 304 305 305 305 305 305 306 307 307 308 308 306 307 309 309 308 309 311 311 310 311 312 311 311 313 314 313 314 314 312 311 313 312 310 308 311 313 312 312 316 315 312 314 315 314 314 315 315 314 314 315 315 315 315 315 316 317 317 316 319 319 317 319 322 322 321 320 320 320 320 320 320 320 320 322 323 322
299 300 300 303 304 303 303 304 304 304 304 304 304 305 305 305 305 306 307 307 308 309 308 308 309 309 308 309 311 311 309 309 310 310 312 314 314 315 316 314 311 312 313 312 312 312 313 315 314 314 316 315 311 312 313 311 311 313 314 315 316 317 317 316 314 314 315 317 317 317 317 316 316 319 320 318 317 318 318 318 318 318 319 318 317 318 319 318
Wind_Speed
21 20 20 20 20 20 20 20 20 20 20 20 21 21 20 19 18 17 16 15 14 13 13 13 13 14 14 13 13 12 12 12 13 12 15 19 21 17 12 10 9 8 8 8 10 9 9 8 7 9 6 3 1 1 2 1 1 2 2 1 2 2 3 3 2 3 3 3 4 4 3 7 4 1 0 3 6 4 5 5 3 5 7 3 6 19 29 28
22 22 21 21 22 21 21 21 21 21 21 20 20 21 22 21 19 18 17 17 15 14 13 12 13 13 13 13 12 12 12 14 15 17 23 25 22 21 18 15 13 11 10 10 10 5 3 3 7 10 4 0 1 1 2 1 2 2 2 2 3 4 4 2 2 4 2 2 2 2 3 5 6 4 2 3 2 3 6 4 4 5 6 5 11 22 27 28
23 23 23 22 22 22 22 22 22 21 21 21 20 21 22 22 20 19 18 18 17 15 13 13 12 12 13 12 12 11 10 13 12 17 28 28 25 24 21 18 16 14 12 12 10 5 4 3 7 7 1 1 2 1 1 2 2 2 3 2 5 4 3 4 2 3 3 4 2 2 1 2 4 4 2 4 4 3 5 3 1 2 3 5 8 16 23 25
23 23 24 24 23 22 22 22 22 22 21 21 20 21 22 23 21 20 20 19 18 15 14 13 12 11 12 11 11 9 7 9 8 14 25 28 28 27 24 20 17 16 14 14 11 8 8 6 6 3 1 1 3 1 1 3 2 2 3 4 5 3 2 5 3 3 2 4 5 0 1 3 2 2 3 7 6 2 5 6 7 8 10 10 7 13 19 20
24 24 23 24 24 23 23 22 23 22 22 22 21 21 21 23 23 21 20 19 19 17 15 13 13 11 11 11 10 8 4 4 4 4 9 15 22 24 25 23 19 18 16 14 11 6 7 5 2 1 1 2 2 1 3 5 3 2 3 5 5 2 2 6 4 4 2 3 4 3 3 2 1 1 3 8 6 4 6 8 9 10 13 15 13 14 16 16
24 24 24 24 23 24 24 23 23 23 23 23 22 22 21 22 24 24 22 20 19 18 15 14 13 11 10 10 10 9 6 3 1 7 8 6 3 8 16 24 22 20 18 14 11 5 4 2 2 1 2 3 4 4 5 5 4 3 4 4 6 5 4 4 2 2 1 5 3 3 2 1 2 0 3 7 6 6 6 7 8 9 15 18 16 15 14 14
24 25 25 24 24 24 24 23 24 23 24 24 22 22 22 22 23 25 24 21 20 19 16 14 13 12 10 10 9 8 7 9 6 5 7 10 10 8 6 17 24 24 20 15 11 6 3 4 5 4 4 4 5 6 5 4 4 5 6 4 6 6 6 6 3 2 3 5 3 3 2 2 2 2 1 3 5 7 4 1 3 10 16 17 14 12 13 15
24 25 25 24 24 25 25 24 24 24 25 24 22 23 23 22 22 24 25 23 20 19 17 15 14 11 11 10 7 7 8 17 22 13 6 6 4 11 14 8 22 25 23 20 15 10 5 6 6 4 4 5 5 6 6 4 3 6 7 4 4 5 6 7 5 5 5 4 2 3 2 3 5 2 0 4 6 6 2 4 5 10 13 12 12 12 11 12
24 25 26 25 25 25 25 25 25 25 26 24 22 23 23 23 22 23 26 25 21 20 18 16 15 11 14 10 3 6 10 20 33 27 21 21 19 19 18 7 19 25 23 23 19 13 7 6 7 5 4 5 4 6 7 6 5 6 8 5 4 5 6 5 5 7 6 4 3 4 3 6 4 2 1 6 6 5 3 6 6 10 11 11 11 12 12 11
24 24 25 26 25 25 25 26 26 25 25 24 23 23 23 23 22 23 25 25 23 22 19 17 15 13 15 10 5 9 8 12 27 29 29 29 26 21 14 7 15 24 21 19 19 14 8 6 6 4 3 2 3 4 5 7 5 6 8 7 7 7 7 4 6 8 4 3 5 6 6 6 3 2 3 6 5 4 5 5 6 9 10 11 10 11 13 13
23 24 24 24 25 26 25 26 26 25 24 24 23 23 23 24 22 22 24 24 25 23 20 18 15 15 16 10 8 10 3 5 15 17 23 26 22 18 14 10 12 23 21 14 18 18 14 9 3 2 2 2 2 3 3 6 4 4 6 5 7 7 7 4 6 6 3 2 6 7 5 4 2 1 5 6 3 5 7 6 6 8 9 10 11 10 11 13
22 23 24 23 23 25 26 25 25 25 25 24 23 23 23 24 23 22 24 25 26 24 22 19 16 18 16 8 12 17 9 6 7 8 11 12 13 14 14 14 13 21 23 15 16 20 19 12 3 1 3 2 1 2 4 3 2 3 4 2 5 5 7 8 6 5 5 4 6 6 2 3 3 5 7 7 4 4 6 6 7 8 7 8 10 9 8 13
22 22 24 24 23 24 25 25 24 25 25 24 23 23 23 24 23 23 23 24 26 26 24 20 18 19 13 6 13 22 22 17 10 10 10 5 7 11 12 15 13 18 24 20 17 17 19 15 5 3 3 2 2 3 2 1 2 4 3 2 3 4 6 8 6 5 6 5 6 6 3 5 6 8 7 6 6 4 4 5 7 7 7 7 8 7 8 11
22 22 23 24 24 23 24 25 25 25 25 24 23 23 23 23 23 23 23 24 26 27 25 21 21 19 11 8 9 13 21 23 21 22 17 10 10 9 12 15 15 17 22 22 17 12 16 15 7 3 1 2 3 4 4 4 1 4 2 2 4 4 5 7 6 8 7 4 6 8 6 7 6 8 9 7 6 6 7 8 7 7 7 6 6 7 8 10
23 23 23 23 24 23 23 24 25 24 24 24 24 22 22 22 23 23 22 24 25 26 25 21 21 15 5 9 11 11 13 18 29 32 22 17 15 8 10 15 18 18 19 19 16 10 13 15 7 2 2 2 1 3 3 3 2 3 5 5 5 5 5 5 5 10 10 3 4 8 5 7 6 8 9 8 8 8 9 10 8 8 7 7 6 7 7 8
24 24 24 23 23 23 23 23 23 25 24 24 23 22 22 22 23 23 23 24 24 25 23 18 21 15 2 5 7 10 15 18 29 33 26 22 18 11 9 13 15 15 15 15 14 11 13 12 4 2 2 1 3 2 3 1 3 3 8 8 6 7 4 3 4 8 10 4 3 7 5 3 4 8 9 8 9 9 9 10 10 8 8 8 6 7 7 7
25 25 25 25 24 23 23 23 24 25 25 24 23 22 22 23 23 23 23 22 23 26 22 13 16 14 4 5 4 5 16 24 23 26 30 27 22 15 8 7 8 8 9 9 8 8 8 7 3 2 1 1 3 4 3 5 8 4 6 6 4 6 6 3 3 4 7 6 5 7 6 6 6 6 8 7 7 8 8 9 10 9 8 8 7 7 7 7
27 26 26 26 25 25 23 23 24 25 25 24 22 22 22 22 22 20 21 21 19 21 18 9 12 10 7 11 10 4 11 22 19 18 26 25 22 17 7 3 4 5 5 3 4 5 4 3 3 3 2 3 4 5 8 10 10 8 7 6 2 2 5 6 4 4 6 5 6 7 8 10 9 7 7 7 6 7 9 9 9 8 8 8 8 8 8 8
28 28 27 26 26 26 25 24 24 25 25 23 22 22 20 18 16 16 18 16 10 9 8 9 13 8 5 7 12 9 8 17 18 13 17 18 16 14 7 2 4 6 6 3 5 7 5 3 4 5 5 8 9 11 12 6 8 11 7 5 5 4 4 5 5 5 8 6 7 9 9 10 11 10 9 8 6 7 9 7 6 7 7 8 8 8 9 9
30 30 29 28 27 27 27 26 25 25 24 23 22 17 12 9 7 8 11 9 9 8 1 9 18 7 3 3 6 14 8 11 15 10 17 19 14 11 4 1 3 4 6 6 7 6 5 6 7 11 13 14 15 13 10 3 5 8 5 4 6 6 5 5 5 6 6 7 7 9 11 12 12 12 12 10 7 7 7 6 6 7 7 8 8 8 9 9
31 31 30 30 29 29 29 28 27 26 24 25 22 11 4 7 7 2 4 5 12 14 2 5 19 10 2 5 1 17 9 7 14 12 19 21 15 11 4 3 3 3 7 6 5 3 4 9 12 16 18 17 15 11 8 6 3 6 7 7 6 7 6 5 6 6 5 5 6 6 9 12 12 11 11 11 10 9 10 9 8 8 8 8 8 9 9 7
31 31 32 31 31 31 30 29 29 26 23 24 20 10 5 10 11 3 3 2 10 16 6 2 13 13 9 5 1 17 8 3 11 9 17 19 12 10 5 5 5 4 8 5 3 3 4 10 17 18 14 13 12 11 10 8 5 3 3 5 6 5 3 3 4 5 3 4 4 5 7 10 11 11 11 11 12 11 11 11 10 10 9 9 9 9 9 8
34 33 33 33 33 33 31 30 30 25 23 23 17 13 13 15 15 7 2 1 5 11 10 5 10 13 14 7 3 13 7 4 10 8 18 18 9 9 7 7 8 7 9 9 6 6 5 11 16 13 9 10 11 10 10 7 5 4 2 4 5 3 3 3 5 4 5 5 4 4 6 8 8 10 10 10 10 9 10 12 10 9 9 10 10 9 9 10
36 35 34 34 34 34 33 29 27 26 26 25 22 23 21 17 18 11 0 1 4 6 13 12 8 7 13 8 2 9 5 4 8 9 19 17 6 6 6 7 10 7 7 13 13 10 9 6 6 9 10 12 10 9 10 7 6 7 5 5 4 4 6 5 3 3 4 6 3 2 6 7 6 9 10 7 7 9 9 9 10 9 8 9 9 9 9 10
37 37 36 35 35 36 34 25 24 29 25 23 27 29 26 19 18 13 2 2 4 2 10 12 4 5 11 9 4 6 3 3 5 10 19 21 12 7 5 5 6 8 9 13 14 12 11 4 9 12 12 11 11 10 12 10 7 8 8 9 7 6 6 5 2 2 2 6 4 5 6 7 5 10 12 7 6 9 8 9 11 10 9 8 8 9 10 10
36 35 35 35 35 36 28 16 21 28 19 20 27 26 26 22 18 13 4 2 5 2 8 10 5 9 12 9 6 3 2 4 4 10 18 22 17 9 6 4 2 9 10 8 7 6 7 7 10 13 11 12 12 10 13 13 9 8 10 10 8 7 7 7 5 2 4 6 4 5 8 7 3 7 10 8 9 11 9 10 11 9 8 8 8 10 10 10
32 33 33 33 33 33 22 8 16 22 13 19 26 23 24 24 17 12 5 4 6 4 7 7 6 13 13 10 11 7 5 5 4 9 16 18 16 7 6 7 4 7 5 3 5 3 6 11 11 12 12 13 11 10 14 15 11 10 8 8 8 9 9 7 6 4 4 3 4 2 4 6 6 6 8 7 9 11 10 10 10 8 9 10 11 12 11 12
26 28 28 29 31 34 27 13 17 22 18 18 24 24 23 23 18 11 3 6 4 5 6 6 6 12 11 11 15 8 4 6 7 7 14 18 15 5 5 11 10 8 5 6 8 2 5 13 14 15 13 9 11 12 12 15 12 8 7 8 9 10 8 5 5 5 2 2 5 4 1 4 8 5 5 6 8 11 10 11 11 10 12 12 12 14 14 14
23 22 23 25 26 32 34 23 20 23 23 20 22 25 25 23 15 5 4 6 1 3 4 7 8 8 8 10 14 10 4 4 6 3 8 13 10 2 4 9 8 6 3 5 8 2 1 6 9 13 12 10 13 11 10 15 12 5 8 8 7 6 6 5 3 2 1 2 8 8 4 5 8 4 5 6 8 11 9 9 11 11 12 12 12 14 15 14
19 18 19 21 22 28 31 27 24 24 24 23 25 29 27 18 7 2 8 4 2 1 2 7 11 10 13 13 11 12 6 2 4 3 4 5 5 1 1 2 5 5 2 5 7 4 2 2 1 6 8 7 8 8 10 15 11 6 8 6 3 2 3 3 1 2 1 6 11 10 7 6 7 4 7 6 7 9 8 7 9 9 11 13 14 14 14 13
17 17 17 18 21 25 22 20 26 27 27 30 32 30 21 7 4 6 7 2 3 2 3 7 11 12 17 18 12 11 8 2 5 7 4 3 4 4 2 2 4 4 4 4 6 5 2 1 1 3 4 3 5 6 6 8 7 7 6 5 4 0 1 3 2 2 4 9 10 10 8 7 10 6 5 6 6 8 9 9 11 13 15 15 14 13 14 14
16 16 15 16 20 24 21 20 30 32 33 40 34 20 9 4 6 7 3 2 2 4 5 8 10 13 18 19 14 14 11 5 6 9 8 6 5 7 9 7 7 6 6 7 7 6 5 5 3 2 4 4 8 7 4 4 6 7 6 6 7 3 2 5 4 4 8 9 6 7 9 8 11 8 5 7 6 7 9 9 11 14 15 14 13 14 13 11
16 14 13 15 18 25 26 24 31 36 38 42 26 9 6 7 8 8 4 2 3 5 7 9 12 16 19 17 13 14 11 4 6 10 10 9 7 9 10 8 9 7 5 8 9 6 5 6 6 3 3 3 9 8 6 6 8 11 9 8 9 6 5 8 6 5 7 7 4 5 7 7 10 7 8 12 10 9 9 9 11 12 12 13 13 12 10 9
16 11 10 13 18 25 28 25 32 41 39 30 14 6 9 8 6 10 11 5 4 3 7 11 13 13 15 13 11 13 10 4 7 10 9 9 7 8 9 8 9 6 3 5 7 6 8 7 7 9 5 5 9 9 8 8 9 11 9 8 8 6 5 7 7 6 5 2 3 4 4 5 6 5 9 13 13 12 11 9 10 9 10 11 10 8 7 9
14 9 9 12 18 25 28 29 37 45 36 17 7 7 9 8 4 7 10 6 2 2 5 11 14 13 11 7 6 11 8 4 9 9 8 10 8 8 9 9 11 7 4 6 5 6 9 7 5 11 8 7 10 7 3 6 6 5 4 6 9 7 4 2 2 5 4 3 3 4 3 5 5 5 5 4 6 10 11 10 10 10 11 10 8 8 9 7
11 8 8 11 18 24 28 32 41 46 31 12 7 7 7 7 4 3 5 5 4 5 8 11 11 10 10 5 5 10 4 2 9 8 5 9 8 9 10 8 11 11 7 7 4 4 8 6 3 8 8 9 13 9 6 7 7 4 4 7 6 2 3 2 1 2 4 3 4 5 5 5 2 7 7 3 4 7 8 9 10 12 12 11 9 10 11 6
11 8 6 9 16 24 30 37 43 38 20 10 10 8 8 7 4 3 3 2 7 10 9 8 7 7 9 5 6 13 6 2 8 7 4 7 7 9 11 7 11 15 11 8 4 2 7 5 1 6 10 9 7 7 6 4 3 4 7 7 3 3 2 3 1 1 3 4 4 7 11 7 4 6 5 5 8 9 8 8 7 8 8 9 11 11 8 4
11 6 4 8 14 21 31 41 41 26 10 8 11 10 7 7 5 4 3 1 7 12 9 5 5 6 9 8 8 14 11 6 9 8 6 6 4 9 14 8 9 17 16 9 4 2 5 4 4 5 10 5 3 6 5 6 2 2 3 2 3 2 2 3 3 3 4 5 4 5 10 7 7 7 2 5 11 10 9 8 6 8 8 8 10 6 1 2
10 3 3 6 12 17 32 41 32 15 6 7 11 9 4 4 3 3 5 4 3 8 10 6 4 6 10 10 10 14 14 11 11 9 8 7 4 9 17 11 7 16 17 11 6 2 3 4 4 2 4 6 5 5 8 8 6 2 2 2 1 2 4 5 5 3 3 6 5 4 6 5 7 7 5 7 9 8 9 8 7 10 9 8 6 1 4 3
8 2 2 7 15 23 35 33 16 8 7 6 8 5 3 2 3 3 5 7 4 4 7 7 6 8 9 8 7 10 11 10 11 10 7 8 5 6 13 13 9 13 15 11 7 1 2 4 4 2 0 5 6 7 12 12 8 5 2 3 4 2 1 1 3 2 3 5 5 6 6 5 5 5 8 11 10 10 10 8 8 8 6 4 3 2 5 4
4 1 2 10 22 31 31 17 4 6 6 4 4 3 2 3 2 3 2 5 3 3 2 6 8 9 9 7 7 9 8 6 9 8 5 8 9 6 9 12 11 11 12 10 8 4 2 3 4 1 2 6 5 4 6 7 8 9 7 7 7 5 3 2 3 3 2 3 4 5 5 5 4 2 5 10 10 9 7 6 7 5 0 1 2 4 5 5
3 1 2 13 28 30 19 5 1 4 4 4 4 3 3 4 2 3 2 2 2 2 2 2 4 7 9 8 7 9 8 6 9 9 7 11 12 6 5 8 9 11 11 9 9 5 3 2 3 3 3 4 3 3 1 1 3 7 7 6 6 4 4 5 6 4 3 4 3 2 3 5 4 3 4 4 4 4 5 6 5 1 4 4 4 5 5 5
3 1 2 18 32 25 10 3 4 4 2 2 4 3 3 3 2 2 2 2 1 2 1 2 3 6 7 6 7 10 9 6 8 11 9 9 9 5 5 8 11 11 10 8 7 4 1 2 3 1 2 2 4 4 2 4 2 3 5 5 6 6 6 5 3 3 3 4 4 2 4 3 4 4 5 3 1 2 1 4 5 4 5 5 5 6 5 6
3 0 1 16 31 22 6 3 6 6 4 2 3 3 1 1 3 4 4 4 2 1 1 3 5 6 5 5 9 12 11 7 8 10 6 4 5 4 6 11 12 11 9 7 8 7 4 3 5 3 1 1 3 3 2 3 0 3 5 6 8 10 9 2 0 1 1 4 7 4 4 4 4 5 5 4 3 5 5 2 5 5 5 5 5 5 5 6
3 1 3 6 18 14 3 1 5 7 6 4 4 5 3 1 2 3 4 3 2 2 2 3 3 4 5 5 7 9 11 7 5 7 5 2 4 4 7 12 13 11 10 8 9 9 5 4 5 7 6 6 7 5 2 2 2 0 2 7 10 13 13 7 4 5 4 5 7 5 4 4 3 3 3 3 2 5 4 2 1 3 4 5 5 5 5 5
3 1 1 1 2 2 2 2 3 5 6 6 4 4 5 3 1 1 4 3 2 3 2 3 3 2 6 8 7 8 12 7 3 4 7 5 3 2 5 11 12 10 9 10 12 8 3 3 6 8 10 8 6 4 2 4 4 2 4 9 12 12 12 9 6 6 5 4 6 7 6 5 5 3 2 2 1 4 3 2 2 1 1 2 3 4 4 4
2 1 2 1 1 1 1 2 2 4 5 6 4 3 6 5 1 1 3 3 2 2 2 2 1 2 8 13 10 8 12 10 4 4 7 6 3 2 1 6 9 8 8 12 11 7 3 5 8 10 14 10 4 4 4 5 7 8 8 9 11 10 10 9 9 8 6 5 7 7 7 8 10 7 6 5 4 4 5 5 4 3 3 2 3 4 5 5
1 1 1 0 0 3 2 3 5 6 6 7 4 4 7 6 4 4 3 2 2 1 2 1 1 4 6 9 9 8 9 10 7 5 5 4 4 1 2 1 3 4 6 8 7 6 4 8 9 12 15 11 5 4 3 4 5 8 10 11 12 12 12 13 13 11 8 8 9 6 8 12 12 6 7 8 7 6 7 6 4 3 3 3 4 5 6 5
2 1 0 1 1 2 2 3 6 8 8 8 4 4 8 9 8 6 3 3 2 2 4 3 3 6 5 3 6 7 10 11 10 8 6 5 5 5 3 2 1 0 4 6 3 2 4 6 6 10 13 10 6 4 3 4 3 3 7 9 9 11 13 13 13 12 10 9 8 4 6 10 8 5 8 9 7 6 6 5 4 3 4 4 5 6 6 7
2 1 1 2 2 0 3 4 6 6 6 6 4 3 6 10 10 7 3 5 5 3 4 5 5 5 5 3 3 6 12 14 12 9 8 7 6 5 4 4 3 2 3 4 2 1 2 4 4 7 7 6 5 5 3 3 4 4 5 4 5 8 8 8 10 8 5 6 7 3 4 9 6 5 6 5 4 4 5 5 6 6 6 7 6 7 7 8
1 1 3 3 1 1 3 4 4 4 4 6 5 4 6 10 11 9 4 6 7 6 7 8 5 1 1 3 4 5 7 8 9 10 13 13 10 7 5 5 7 7 5 4 2 1 2 1 2 5 5 4 5 7 5 2 2 4 5 3 6 7 5 6 8 7 7 7 6 3 4 9 7 5 5 7 7 6 6 6 7 7 7 8 8 9 9 10
0 1 2 3 1 0 2 3 3 4 4 5 6 5 6 8 10 9 5 3 5 7 8 9 7 3 1 4 8 5 2 3 4 6 9 9 7 4 3 6 10 10 8 6 3 2 4 4 2 4 5 3 3 6 6 4 2 4 7 8 11 10 8 7 6 6 9 9 6 6 9 11 5 6 7 11 10 9 9 9 8 9 10 9 9 9 9 9
Wind_Direction
275 276 275 272 270 270 268 267 267 268 268 265 258 252 249 248 243 241 246 247 250 255 256 261 267 275 277 278 278 279 283 282 279 260 241 242 239 235 236 227 223 249 268 287 302 302 298 296 314 340 352 342 294 246 279 233 116 74 97 166 225 197 195 191 205 232 206 221 218 224 193 130 141 204 81 32 54 84 71 38 14 22 26 48 142 147 153 161
274 272 272 271 268 265 266 266 265 265 266 266 262 255 249 248 244 237 240 244 246 249 251 254 260 270 275 277 277 279 285 287 284 263 250 250 248 243 237 230 227 242 257 275 295 311 302 301 347 358 11 41 263 264 289 265 151 140 137 183 225 198 208 214 230 252 216 212 224 212 199 151 160 167 118 107 115 108 92 23 9 51 40 65 123 141 151 160
274 272 271 269 268 265 263 265 265 263 263 264 263 259 251 247 245 237 236 241 243 245 247 248 251 261 271 274 277 280 287 293 286 267 263 257 249 243 235 229 224 230 244 258 276 276 251 288 338 349 25 247 265 240 282 272 223 177 147 204 243 208 238 291 287 254 220 168 118 319 267 143 175 163 128 145 148 152 149 166 118 122 163 140 141 147 153 161
273 272 270 268 267 264 261 262 265 264 261 261 262 262 256 248 245 239 234 238 242 241 243 244 243 249 263 270 273 276 288 299 277 263 269 260 249 244 234 229 221 221 233 247 259 264 264 286 328 328 164 242 274 177 201 240 216 179 163 197 237 196 234 279 277 278 267 132 130 262 57 104 211 153 128 137 133 249 229 203 188 183 176 166 172 163 161 165
272 270 268 266 265 263 261 260 262 265 263 261 260 260 259 250 245 239 232 235 239 238 239 240 239 238 251 263 264 265 273 298 267 242 276 258 244 242 234 229 221 220 227 237 250 263 266 267 3 339 182 213 244 126 221 237 166 171 219 211 233 185 198 264 271 269 287 82 98 96 105 143 250 101 138 141 148 236 228 213 202 177 170 171 175 171 168 171
271 268 266 265 264 262 261 259 259 262 263 262 258 257 258 252 247 242 234 232 235 236 235 235 238 231 237 254 255 244 214 234 6 95 75 71 188 238 236 230 222 221 224 229 235 241 256 208 134 196 177 195 205 191 228 234 162 205 256 223 235 220 204 251 276 265 149 85 91 133 162 111 63 172 181 154 177 228 218 208 200 174 171 170 166 168 172 178
270 267 264 264 264 261 261 259 257 258 260 261 259 258 257 253 248 243 235 230 232 234 232 231 234 225 225 242 245 238 221 241 251 127 88 64 64 29 308 234 222 221 218 215 214 208 212 178 174 178 164 200 207 204 224 219 174 206 243 229 228 220 213 231 230 236 149 128 157 150 117 95 148 195 178 192 226 242 252 304 161 156 159 159 161 175 184 185
270 268 264 263 262 262 261 259 257 255 255 257 258 258 258 255 249 242 236 230 228 230 229 228 230 217 215 226 229 243 239 240 238 220 237 282 321 343 342 255 217 215 209 208 207 192 186 186 193 175 172 220 204 192 200 198 202 209 223 229 223 222 221 224 212 203 172 156 156 110 127 223 204 172 122 241 253 249 236 58 101 134 142 156 169 184 192 194
269 268 266 262 260 261 261 260 258 254 252 253 255 256 256 255 250 244 238 229 223 226 225 225 227 211 210 216 194 243 247 242 239 236 246 262 279 300 320 283 209 206 203 210 211 194 184 189 202 191 182 221 198 189 188 186 221 211 209 221 216 236 241 207 196 206 182 174 166 133 232 255 232 194 259 248 238 231 151 103 124 133 145 171 179 187 192 198
269 266 264 263 260 258 259 260 260 256 253 251 251 253 255 253 251 246 240 231 223 223 223 222 221 207 207 204 191 235 252 249 243 245 253 263 280 289 292 268 207 199 198 207 207 196 192 194 198 182 172 219 197 204 192 185 215 200 196 224 220 233 252 189 187 216 192 190 191 173 221 255 271 209 245 264 238 175 133 131 151 147 163 182 186 194 196 200
271 266 263 263 263 258 256 257 259 257 253 251 250 251 253 253 252 246 239 232 225 220 219 219 214 207 205 194 210 229 222 239 238 243 256 263 273 273 260 248 211 197 197 203 208 205 204 209 207 148 186 220 211 264 244 204 217 189 173 226 244 244 266 229 196 214 186 224 196 168 213 262 340 224 217 251 239 147 154 167 174 171 182 190 193 198 197 207
270 267 263 260 261 259 256 254 255 256 254 252 251 249 250 252 252 247 238 232 228 222 216 215 209 207 206 203 229 226 209 218 228 230 246 263 260 255 252 242 218 204 201 200 213 212 209 215 224 199 223 211 186 256 257 222 199 203 173 206 268 269 263 240 217 202 180 211 185 146 279 262 223 228 221 237 231 161 159 174 189 197 200 198 200 203 201 213
267 267 266 260 257 257 258 255 253 254 254 253 250 249 249 249 251 250 244 236 231 225 215 210 206 205 204 221 241 234 231 228 239 258 251 272 258 235 235 231 223 215 209 208 215 215 212 217 223 226 235 176 202 242 272 326 169 205 202 184 262 282 257 233 210 180 179 201 166 146 260 240 222 240 236 240 239 228 229 212 205 209 214 212 207 207 211 216
268 266 266 263 257 253 255 256 254 252 252 252 250 249 247 249 250 249 246 237 229 222 213 207 202 201 207 237 252 237 235 234 245 259 251 263 275 242 226 223 218 215 212 212 214 220 217 214 217 226 250 187 234 310 353 355 210 175 184 196 204 224 255 246 198 165 180 216 157 154 237 242 231 248 244 245 239 224 243 246 226 215 220 222 218 215 220 218
268 265 263 262 259 253 250 252 255 252 250 251 250 249 247 250 250 248 246 234 226 219 211 208 199 191 218 258 257 235 226 235 241 242 237 251 266 257 232 215 209 210 209 210 211 219 207 199 199 189 247 257 235 338 360 341 321 150 189 222 205 209 263 277 214 176 183 227 161 164 226 257 244 244 240 235 227 216 227 243 240 229 226 221 223 221 224 228
264 263 260 259 258 255 251 249 252 251 249 248 248 249 247 250 250 250 247 235 230 220 206 205 199 190 238 259 243 232 218 225 232 228 225 239 247 247 240 210 200 201 201 203 207 207 185 177 186 171 194 249 156 130 59 348 271 217 207 215 206 203 230 275 255 199 180 164 195 203 219 258 251 238 236 227 221 222 223 239 244 239 237 230 227 224 224 233
263 261 259 257 256 255 252 249 250 250 247 246 246 248 248 252 252 250 251 241 232 218 201 193 188 188 266 254 213 212 210 216 223 221 222 231 236 239 242 199 183 180 178 182 194 203 180 166 179 165 145 176 160 128 122 202 216 220 214 218 219 196 190 206 258 231 182 164 201 225 229 230 244 241 239 239 223 221 222 235 245 241 239 237 236 236 232 231
262 260 257 256 255 253 252 249 249 249 247 243 244 246 247 252 252 250 253 243 226 208 196 176 162 180 260 246 224 206 204 211 211 213 218 224 228 229 224 157 142 145 148 139 170 194 191 168 158 160 186 190 169 166 190 207 201 197 200 203 218 181 184 192 210 210 186 193 205 214 234 237 251 264 252 249 221 211 224 227 238 243 236 236 237 237 239 237
261 259 256 255 253 251 250 248 247 247 246 242 243 246 248 255 256 248 239 227 207 194 191 171 165 182 256 235 216 204 199 206 204 203 205 209 211 206 200 137 126 156 165 156 183 191 176 144 150 175 203 202 200 200 202 199 184 192 190 173 166 165 202 202 213 219 185 200 224 215 234 239 241 249 246 250 222 206 232 234 237 248 241 238 237 235 239 240
259 256 255 254 251 249 248 247 245 244 243 241 238 239 245 244 243 238 219 206 207 211 198 175 186 197 21 11 213 191 180 189 192 193 194 193 174 162 176 101 114 175 185 172 178 181 172 177 185 194 201 203 208 208 209 219 171 168 159 175 179 179 220 215 214 238 184 195 238 220 231 241 235 236 232 236 231 217 239 242 236 243 243 242 239 238 237 235
257 254 253 251 249 247 245 246 244 240 240 237 227 219 221 204 200 218 175 208 228 219 281 182 196 222 273 359 199 175 160 170 188 192 187 182 159 152 178 178 165 200 192 174 157 153 184 197 203 204 200 198 203 202 208 235 202 161 178 195 196 192 217 217 211 235 186 187 247 221 229 246 241 240 234 232 236 234 236 236 234 237 240 242 241 243 242 243
257 253 251 249 247 245 243 245 244 239 237 232 219 208 226 213 217 282 107 223 244 213 229 210 199 231 242 325 232 171 148 133 189 198 180 171 163 175 185 177 197 211 184 169 135 159 196 211 211 207 198 191 195 189 194 221 232 218 190 178 197 206 220 271 256 254 200 194 238 213 229 250 245 243 236 228 231 232 232 231 227 226 232 238 239 242 245 253
257 253 251 248 245 243 242 242 242 239 233 225 215 212 226 220 225 267 86 162 276 200 200 197 191 222 229 277 299 172 160 155 181 198 181 172 172 184 171 174 206 218 187 182 189 187 201 218 212 198 188 193 194 183 185 207 231 231 179 163 205 201 166 222 253 254 234 236 236 219 249 256 245 251 245 228 228 233 235 235 233 227 226 232 236 240 242 244
255 252 251 247 243 243 240 239 238 234 227 223 223 223 224 219 224 246 92 190 291 200 197 200 185 213 221 241 247 173 190 188 178 187 180 175 166 171 172 180 199 220 203 194 199 208 221 216 169 167 188 196 192 184 184 194 225 228 208 190 202 184 184 205 218 220 243 257 237 217 279 268 223 238 250 234 224 236 236 236 244 244 235 237 246 250 247 243
253 251 250 246 243 242 237 235 232 227 222 220 225 227 223 219 223 228 205 248 267 202 196 197 185 219 209 206 193 178 204 244 209 187 178 180 171 155 178 183 188 217 220 204 199 215 233 192 144 178 190 186 193 196 188 188 210 234 222 207 195 185 205 225 202 129 189 251 232 183 246 270 215 220 238 228 212 229 231 226 232 238 239 240 248 251 249 248
251 250 248 245 243 238 233 232 224 217 213 220 224 222 217 218 219 205 170 276 253 193 176 169 164 195 188 184 183 147 181 240 222 178 179 185 179 160 177 174 181 219 216 209 206 219 224 184 170 187 181 181 199 206 195 188 197 227 217 198 187 185 205 223 223 165 174 236 259 184 214 264 269 224 231 221 215 224 222 225 228 230 240 241 241 243 242 247
249 248 245 244 241 230 223 212 200 197 201 224 218 209 208 207 196 173 152 261 236 168 158 161 166 177 173 168 162 154 194 186 127 173 184 185 180 161 173 175 188 215 191 164 223 219 178 181 183 184 180 187 199 207 198 185 196 225 199 162 175 199 208 208 216 225 217 258 301 239 201 256 267 239 224 211 221 233 227 232 238 235 242 245 245 246 242 241
248 249 245 243 237 225 217 182 165 187 206 212 201 196 196 186 168 147 166 241 211 123 146 174 166 160 156 153 159 181 234 150 141 189 181 177 180 160 174 191 196 201 177 175 211 242 160 183 188 185 186 194 202 208 192 181 203 221 163 154 190 205 201 180 191 227 263 311 272 262 152 242 257 243 211 199 214 234 230 230 240 239 239 241 245 250 247 242
247 248 245 240 235 228 221 200 178 196 204 189 182 186 178 164 150 126 228 233 134 97 149 160 157 148 142 148 169 202 260 150 167 172 153 174 187 143 177 198 185 178 193 209 214 256 90 194 196 188 191 203 205 201 176 183 207 185 144 178 210 205 189 176 186 203 323 263 240 234 188 227 260 224 188 200 214 226 225 224 231 233 235 236 238 243 245 244
245 244 243 236 232 224 216 209 204 201 188 172 169 168 157 148 146 206 228 221 70 169 164 154 170 163 152 156 179 202 211 167 157 115 111 175 190 148 131 153 124 133 197 254 238 246 3 351 276 198 203 207 198 191 179 188 191 136 138 177 190 197 177 161 122 83 250 256 243 229 196 213 257 218 179 202 209 204 203 217 232 235 238 236 235 239 245 249
242 243 238 227 226 215 200 204 205 192 174 166 161 154 145 142 199 216 219 175 76 182 169 164 168 151 156 164 175 191 198 214 164 155 148 154 171 172 150 105 101 137 190 246 256 255 285 342 342 252 237 175 161 202 200 180 171 152 148 146 137 114 111 126 76 94 217 246 242 223 194 204 241 230 191 219 218 199 199 205 215 224 232 236 239 243 246 247
241 244 237 223 222 210 200 204 195 181 168 162 156 147 148 192 213 217 227 114 145 193 166 162 159 152 163 169 175 183 183 193 184 173 170 164 172 181 181 178 164 167 193 206 214 228 238 220 196 255 271 185 172 195 193 150 179 189 171 154 166 184 161 176 191 183 213 242 241 189 176 209 243 239 222 243 241 221 221 216 211 217 227 236 240 242 245 249
242 245 241 226 218 210 210 205 187 176 164 157 152 145 176 210 213 207 218 205 226 202 161 160 164 165 168 168 180 184 176 187 189 179 177 170 176 192 193 187 178 178 186 193 201 209 229 229 204 205 274 211 180 180 180 176 188 195 185 175 182 182 180 195 199 192 211 235 232 165 169 229 261 247 217 230 234 222 221 225 220 218 227 235 240 244 254 263
240 240 240 225 217 216 212 199 183 174 161 151 150 163 185 217 211 191 202 215 265 231 157 155 157 163 174 176 180 176 172 201 188 173 173 169 179 197 197 195 192 184 121 170 198 195 211 231 203 192 199 185 192 199 190 177 186 199 194 187 195 192 189 196 193 196 202 202 187 174 174 210 232 232 215 222 235 230 220 221 224 225 231 238 251 267 271 266
231 228 242 225 215 215 206 193 180 169 159 151 166 177 192 213 196 194 200 178 227 258 133 146 152 158 179 188 180 178 181 189 175 172 174 175 187 192 189 195 193 185 151 171 191 185 212 244 205 196 198 168 188 214 169 152 183 208 184 191 211 209 191 195 187 178 155 108 162 189 225 215 212 264 258 232 252 245 232 231 233 239 244 244 255 269 265 265
213 213 231 219 213 211 198 185 174 165 159 159 179 189 204 209 189 195 190 150 163 161 135 153 162 162 174 169 170 186 193 108 163 177 180 179 195 191 188 196 187 189 191 178 174 167 201 240 193 184 206 192 188 193 176 170 177 188 189 197 217 214 135 139 292 115 123 174 193 187 243 257 249 277 269 223 254 261 246 242 240 244 253 255 253 253 254 258
199 202 217 221 219 209 193 179 168 162 159 163 185 198 198 206 198 166 174 136 150 151 146 165 167 166 172 153 165 182 180 125 167 183 178 174 201 194 191 204 184 192 207 190 189 185 186 226 299 170 204 219 190 171 194 210 144 153 202 191 128 39 78 110 222 174 135 208 205 193 226 229 198 254 266 212 229 249 247 244 249 254 255 253 250 249 254 252
182 183 231 235 222 203 184 173 163 158 159 170 192 201 188 200 201 160 164 143 155 160 163 173 168 176 177 166 175 178 171 168 174 182 180 174 212 193 187 201 187 194 206 192 191 235 176 218 290 201 194 197 109 137 206 253 231 173 232 177 117 193 216 161 195 201 177 212 223 211 225 218 198 217 224 207 222 236 248 252 257 258 246 240 252 263 347 50
161 152 286 215 205 194 176 168 160 157 166 178 197 203 177 200 232 186 161 159 189 180 176 188 187 186 188 181 178 174 176 181 174 177 186 182 214 199 184 187 189 197 202 186 183 221 151 191 262 264 180 159 134 169 208 221 209 181 344 333 197 218 206 187 198 206 184 205 226 224 219 227 224 205 181 213 223 216 234 246 242 247 247 249 269 329 89 95
145 123 284 173 178 179 169 162 157 163 172 186 204 198 146 190 267 273 176 161 200 223 186 191 183 177 186 178 166 176 183 181 172 182 195 186 209 223 190 183 184 190 190 184 191 178 93 190 232 316 210 173 171 198 213 210 189 167 185 210 209 206 143 179 206 190 173 198 219 228 232 253 254 200 186 211 223 214 216 224 237 250 263 274 288 108 124 123
125 124 258 173 170 167 161 156 161 168 165 192 204 175 149 179 224 261 220 145 167 265 224 188 179 171 173 166 165 179 180 173 178 189 203 198 205 226 200 186 180 174 171 181 199 182 133 190 195 194 196 191 198 216 223 217 192 186 198 197 196 191 155 182 204 172 168 208 199 212 246 266 265 246 215 213 221 231 221 211 240 259 298 77 81 106 120 117
122 163 217 175 170 163 156 152 156 151 164 188 170 135 155 166 159 216 231 81 134 255 284 215 187 165 170 174 169 173 174 175 182 187 206 211 205 212 209 177 157 154 159 181 202 181 116 130 161 199 214 201 243 283 354 18 193 204 212 192 183 183 164 194 209 181 187 205 159 155 255 274 291 319 310 249 226 259 245 209 218 209 117 120 107 96 95 94
140 194 203 177 172 163 155 167 146 148 197 169 135 125 151 156 137 170 181 109 157 224 241 237 201 171 179 177 159 167 176 181 194 200 212 219 211 212 197 161 143 149 161 180 194 179 83 123 151 226 287 311 310 308 5 29 44 211 219 182 167 188 193 203 210 167 181 196 174 192 228 256 313 330 335 326 341 6 330 164 154 136 129 128 114 106 101 94
141 91 279 181 175 167 161 178 158 167 184 103 123 141 98 139 159 161 179 183 181 182 218 227 196 176 180 169 164 173 175 176 206 213 208 216 223 204 173 164 152 157 178 185 175 177 193 182 163 177 229 244 270 285 333 342 310 193 210 194 186 194 191 181 114 158 219 197 179 198 223 226 295 329 352 356 45 59 40 90 134 138 141 132 119 119 117 107
121 54 340 180 174 168 167 193 166 169 159 127 152 161 138 166 184 165 167 172 188 177 203 257 227 165 151 152 152 168 179 176 185 203 198 187 215 199 169 174 170 173 192 180 154 163 186 188 183 192 199 199 207 215 221 214 198 210 215 196 195 195 187 184 206 208 215 185 168 189 228 233 291 335 357 346 58 80 53 25 93 115 139 141 134 136 133 125
127 151 327 35 147 151 347 341 154 165 156 143 156 168 161 171 275 144 145 152 247 219 213 271 265 148 145 154 150 169 192 191 123 169 197 187 198 230 178 178 184 187 179 157 146 145 157 202 197 204 219 218 206 207 145 117 139 205 219 198 202 204 191 189 212 212 200 185 188 202 207 226 259 237 210 271 212 137 138 142 122 120 159 148 130 123 117 119
141 142 163 134 49 100 344 339 124 141 156 161 166 169 167 166 147 147 159 178 222 230 258 286 278 189 169 165 166 179 190 195 180 172 189 189 209 290 178 170 189 193 164 157 161 137 124 213 196 199 226 228 184 180 180 146 165 193 200 197 202 205 191 191 213 211 185 198 225 213 192 223 242 217 191 216 214 177 171 169 167 171 174 153 111 103 107 115
151 161 184 170 323 171 186 211 168 144 149 167 169 160 166 171 177 179 175 163 146 173 239 234 186 236 209 170 170 176 174 189 211 198 173 178 182 159 74 115 206 206 162 167 174 133 146 216 199 193 221 226 173 165 178 153 169 190 194 194 198 201 197 200 216 216 196 212 234 206 183 221 237 212 187 199 191 179 186 191 185 169 167 147 120 125 140 152
115 116 228 20 333 199 134 136 156 151 157 168 164 158 166 176 193 191 139 123 156 197 209 220 233 233 233 181 168 173 171 182 206 207 176 162 170 155 125 123 250 269 146 165 194 131 163 206 191 185 213 222 201 194 172 141 142 184 198 196 196 201 201 204 218 222 212 226 244 204 197 236 242 200 201 208 194 188 191 181 162 161 192 186 155 157 172 179
145 105 143 84 357 303 89 102 140 149 162 173 180 194 176 179 192 192 146 162 190 191 185 208 236 227 215 201 178 192 195 191 194 192 162 150 173 179 169 177 162 90 115 155 197 308 193 197 153 157 199 228 218 218 219 173 172 207 212 185 170 184 194 208 221 220 207 236 254 245 252 266 249 197 213 232 213 205 196 182 181 187 202 202 183 178 185 192
173 146 137 122 75 128 109 108 130 138 166 193 198 190 183 189 191 187 189 201 196 189 185 185 184 168 195 215 228 242 232 209 195 182 167 166 178 183 189 185 156 145 156 166 160 145 171 189 88 129 180 235 215 200 205 172 172 244 246 192 157 166 181 204 211 198 178 194 214 205 238 257 238 186 213 241 229 220 212 200 208 220 217 208 200 193 192 201
5 100 90 108 117 143 118 108 135 163 181 198 195 185 191 196 189 183 196 231 203 191 180 165 155 125 87 225 230 238 291 294 246 200 173 162 155 147 165 165 153 154 163 158 136 134 151 150 129 148 176 239 226 177 164 125 125 249 240 203 190 192 198 206 209 199 191 184 173 183 220 238 213 158 211 238 228 218 223 218 214 225 225 213 207 206 204 208